DG7AA-13 Weather Reports


Display with metric or nautical units.
time (UTC)temp
F
wind
direction
speed
MPH
gust
MPH
rain 1hr
in
rain 24hr
in
rain mn
in
humidity
%
barometer
mb
20260509104531 63 164 2.0 5.0 0.00 0.00 0.00 62
20260509103532 62 177 4.0 7.0 0.00 0.00 0.00 62
20260509102534 62 185 3.0 10.0 0.00 0.00 0.00 63
20260509101532 60 168 4.0 10.0 0.00 0.00 0.00 65
20260509100530 61 170 3.0 7.0 0.00 0.00 0.00 64
20260509095534 61 153 3.0 7.0 0.00 0.00 0.00 66
20260509094523 62 177 2.0 6.0 0.00 0.00 0.00 66
20260509093532 61 185 3.0 9.0 0.00 0.00 0.00 67
20260509092527 60 184 3.0 8.0 0.00 0.00 0.00 69
20260509091656 60 182 3.0 10.0 0.00 0.00 0.00 69
20260509090523 60 171 4.0 9.0 0.00 0.00 0.00 70
20260509085538 61 169 3.0 5.0 0.00 0.00 0.00 68
20260509084524 60 176 3.0 7.0 0.00 0.00 0.00 71
20260509083534 61 164 3.0 7.0 0.00 0.00 0.00 70
20260509082527 60 145 3.0 6.0 0.00 0.00 0.00 72
20260509081532 60 159 3.0 7.0 0.00 0.00 0.00 73
20260509080533 58 184 2.0 7.0 0.00 0.00 0.00 78
20260509075535 58 180 2.0 4.0 0.00 0.00 0.00 78
20260509074523 57 153 1.0 4.0 0.00 0.00 0.00 81
20260509073536 54 156 1.0 4.0 0.00 0.00 0.00 87
20260509072525 51 150 0.0 2.0 0.00 0.00 0.00 93
20260509071526 49 12 0.0 2.0 0.00 0.00 0.00 94
20260509070526 48 12 1.0 2.0 0.00 0.00 0.00 94
20260509065532 47 6 1.0 2.0 0.00 0.00 0.00 95
20260509064524 46 4 1.0 2.0 0.00 0.00 0.00 96
20260509063536 46 350 1.0 3.0 0.00 0.00 0.00 97
20260509062524 45 20 1.0 2.0 0.00 0.00 0.00 97
20260509061524 44 6 1.0 2.0 0.00 0.00 0.00 98
20260509060523 43 18 0.0 2.0 0.00 0.00 0.00 98
20260509055532 43 355 0.0 1.0 0.00 0.00 0.00 98
20260509054527 42 0.0 0.0 0.00 0.00 0.00 98
20260509053526 42 355 0.0 1.0 0.00 0.00 0.00 97
20260509052528 42 352 0.0 2.0 0.00 0.00 0.00 97
20260509051533 42 3 0.0 2.0 0.00 0.00 0.00 97
20260509050523 42 0.0 0.0 0.00 0.00 0.00 97
20260509045534 42 348 0.0 2.0 0.00 0.00 0.00 97
20260509044524 42 354 0.0 2.0 0.00 0.00 0.00 97
20260509043538 42 353 1.0 2.0 0.00 0.00 0.00 97
20260509042527 43 353 1.0 2.0 0.00 0.00 0.00 97
20260509041535 43 353 1.0 2.0 0.00 0.00 0.00 97
20260509040533 43 0.0 0.0 0.00 0.00 0.00 97
20260509035525 44 354 0.0 1.0 0.00 0.00 0.00 97
20260509034527 44 0.0 0.0 0.00 0.00 0.00 97
20260509033532 44 0.0 0.0 0.00 0.00 0.00 97
20260509032525 44 0.0 1.0 0.00 0.00 0.00 97
20260509031531 43 0.0 0.0 0.00 0.00 0.00 97
20260509030520 43 0.0 0.0 0.00 0.00 0.00 97
20260509025535 43 0.0 0.0 0.00 0.00 0.00 97
20260509024524 43 354 0.0 1.0 0.00 0.00 0.00 97
20260509023532 43 0.0 1.0 0.00 0.00 0.00 97
20260509022524 44 352 0.0 2.0 0.00 0.00 0.00 97
20260509021532 43 0.0 0.0 0.00 0.00 0.00 97
20260509020539 43 354 0.0 1.0 0.00 0.00 0.00 97
20260509015533 43 352 0.0 1.0 0.00 0.00 0.00 97
20260509014524 43 347 0.0 2.0 0.00 0.00 0.00 97
20260509013531 43 349 0.0 1.0 0.00 0.00 0.00 97
20260509012523 44 0.0 0.0 0.00 0.00 0.00 97
20260509011528 44 0.0 0.0 0.00 0.00 0.00 97
20260509010523 44 0.0 0.0 0.00 0.00 0.00 97
20260509005521 44 0.0 0.0 0.00 0.00 0.00 97
20260509004524 44 352 1.0 2.0 0.00 0.00 0.00 97
20260509003531 43 350 0.0 1.0 0.00 0.00 0.00 97
20260509002523 43 0.0 0.0 0.00 0.00 0.00 97
20260509001531 44 0.0 0.0 0.00 0.00 0.00 97
20260509000534 43 0.0 0.0 0.00 0.00 0.00 96
20260508235532 44 346 0.0 1.0 0.00 0.00 0.00 96
20260508234527 44 357 0.0 2.0 0.00 0.00 0.00 95
20260508233528 45 0.0 0.0 0.00 0.00 0.00 95
20260508232523 45 0.0 0.0 0.00 0.00 0.00 95
20260508231537 46 0.0 0.0 0.00 0.00 0.00 95
20260508230523 47 0.0 0.0 0.00 0.00 0.00 94
20260508225531 47 0.0 0.0 0.00 0.00 0.00 94
20260508224524 47 0.0 0.0 0.00 0.00 0.00 94
20260508223528 47 0.0 0.0 0.00 0.00 0.00 93
20260508222524 47 355 0.0 1.0 0.00 0.00 0.00 93
20260508221535 48 0.0 0.0 0.00 0.00 0.00 93
20260508220524 48 0.0 0.0 0.00 0.00 0.00 93
20260508215526 48 172 0.0 2.0 0.00 0.00 0.00 93
20260508214527 48 0.0 0.0 0.00 0.00 0.00 93
20260508213531 48 0.0 0.0 0.00 0.00 0.00 93
20260508212523 49 0.0 0.0 0.00 0.00 0.00 93
20260508211532 49 0.0 0.0 0.00 0.00 0.00 93
20260508210527 49 0.0 0.0 0.00 0.00 0.00 92
20260508205522 49 0.0 0.0 0.00 0.00 0.00 92
20260508204524 49 0.0 0.0 0.00 0.00 0.00 92
20260508203533 49 0.0 0.0 0.00 0.00 0.00 91
20260508202523 49 0.0 0.0 0.00 0.00 0.00 91
20260508201522 50 0.0 0.0 0.00 0.00 0.00 90
20260508200520 50 0.0 0.0 0.00 0.00 0.00 89
20260508195532 50 0.0 0.0 0.00 0.00 0.00 89
20260508194525 50 139 0.0 1.0 0.00 0.00 0.00 89
20260508193522 50 0.0 0.0 0.00 0.00 0.00 88
20260508192526 50 0.0 0.0 0.00 0.00 0.00 88
20260508191531 51 0.0 0.0 0.00 0.00 0.00 88
20260508190523 51 176 0.0 1.0 0.00 0.00 0.00 87
20260508185533 51 182 0.0 2.0 0.00 0.00 0.00 85
20260508184527 52 159 1.0 2.0 0.00 0.00 0.00 86
20260508183546 52 168 0.0 3.0 0.00 0.00 0.00 86
20260508182523 52 0.0 0.0 0.00 0.00 0.00 86
20260508181532 52 0.0 0.0 0.00 0.00 0.00 86
20260508180523 52 0.0 1.0 0.00 0.00 0.00 85
20260508175531 53 0.0 1.0 0.00 0.00 0.00 85
20260508174526 53 0.0 0.0 0.00 0.00 0.00 85
20260508173542 53 0.0 0.0 0.00 0.00 0.00 83
20260508172539 53 205 0.0 1.0 0.00 0.00 0.00 82
20260508171549 53 0.0 0.0 0.00 0.00 0.00 81
20260508170526 53 166 0.0 1.0 0.00 0.00 0.00 81
20260508165535 53 167 0.0 2.0 0.00 0.00 0.00 80
20260508164523 53 168 0.0 2.0 0.00 0.00 0.00 79
20260508163534 53 144 0.0 1.0 0.00 0.00 0.00 80
20260508162520 53 151 0.0 1.0 0.00 0.00 0.00 80
20260508161535 53 177 0.0 2.0 0.00 0.00 0.00 79
20260508160523 53 164 0.0 2.0 0.00 0.00 0.00 80
20260508155528 53 168 1.0 3.0 0.00 0.00 0.00 79
20260508154525 53 180 0.0 2.0 0.00 0.00 0.00 80
20260508153526 53 157 1.0 3.0 0.00 0.00 0.00 79
20260508152527 54 158 0.0 2.0 0.00 0.00 0.00 78
20260508151534 54 146 1.0 4.0 0.00 0.00 0.00 78
20260508150523 54 143 0.0 2.0 0.00 0.00 0.00 78
20260508145532 54 146 1.0 2.0 0.00 0.00 0.00 77
20260508144524 54 151 1.0 2.0 0.00 0.00 0.00 77
20260508143532 54 154 1.0 3.0 0.00 0.00 0.00 76
20260508142533 55 175 1.0 2.0 0.00 0.00 0.00 78
20260508141526 55 161 0.0 2.0 0.00 0.00 0.00 77
20260508140523 55 348 1.0 2.0 0.00 0.00 0.00 76
20260508135525 55 323 0.0 2.0 0.00 0.00 0.00 75
20260508134523 55 335 0.0 2.0 0.00 0.00 0.00 77
20260508133535 54 172 0.0 2.0 0.00 0.00 0.00 77
20260508132527 54 174 1.0 2.0 0.00 0.00 0.00 78
20260508131534 54 167 1.0 3.0 0.00 0.00 0.00 77
20260508130523 55 184 0.0 2.0 0.00 0.00 0.00 77
20260508125532 55 172 0.0 2.0 0.00 0.00 0.00 78
20260508124524 54 187 1.0 2.0 0.00 0.00 0.00 77
20260508123519 54 190 2.0 4.0 0.00 0.00 0.00 74
20260508122538 54 171 1.0 4.0 0.00 0.00 0.00 77
20260508121531 55 173 1.0 4.0 0.00 0.00 0.00 76
20260508120528 55 145 1.0 4.0 0.00 0.00 0.00 77
20260508115528 55 125 1.0 2.0 0.00 0.00 0.00 77
20260508114523 55 145 1.0 4.0 0.00 0.00 0.00 76
20260508113534 54 156 1.0 4.0 0.00 0.00 0.00 76
20260508112523 54 175 1.0 4.0 0.00 0.00 0.00 76
20260508111519 54 150 1.0 4.0 0.00 0.00 0.00 79
20260508110526 53 175 2.0 4.0 0.00 0.00 0.00 78
20260508105531 53 183 1.0 3.0 0.00 0.00 0.00 79